Location: Helsinki
(60.1699°N, 24.9384°E)
Time: 14:13:19
(UTC+02:00)

Tiros 1 - Pass Details

Date: 04 October 2022
Orbit: 629 x 662 km, 48.4° (Epoch: 07 December)

Event Time Altitude Azimuth Distance (km) Brightness Sun altitude
Rises 01:37:16 0° 221° (SW) 2,988 - -33.8°
Reaches altitude 10° 01:40:23 10° 201° (SSW) 2,075 - -33.8°
Maximum altitude 01:43:19 16° 162° (SSE) 1,688 - -33.7°
Drops below altitude 10° 01:46:15 10° 124° (SE) 2,069 - -33.6°
Sets 01:49:21 0° 104° (ESE) 2,976 - -33.5°
